Theta_e
320 323 326 328 332 336 335 335 334 334 332 331 335 335 334 334 333 331 330 329 331 331 332 334 335 335 334 333 332 332 328 326 329 331 330 332 329 326 323 322 327 329 327
318 321 324 326 329 333 336 334 334 334 333 331 334 334 333 333 333 331 331 332 334 336 336 335 334 335 332 330 328 330 329 328 327 330 330 329 327 325 323 322 323 327 325
317 321 323 325 326 330 334 333 333 333 333 332 332 333 334 333 333 332 331 336 337 334 336 336 334 333 330 324 328 328 328 327 328 329 326 325 325 324 327 324 326 324 326
315 319 322 323 325 327 331 334 331 332 332 332 332 334 334 334 333 332 334 333 336 337 335 334 333 330 326 326 327 327 325 323 323 324 325 325 325 324 325 326 327 326 327
314 314 317 319 322 324 328 331 332 331 331 331 330 331 333 334 332 332 333 332 335 335 334 332 332 329 328 329 327 325 323 321 320 320 321 323 325 326 322 322 322 321 321
314 312 314 316 318 322 325 329 331 331 332 331 331 331 330 333 332 332 331 332 332 331 329 330 330 328 326 323 323 321 322 321 320 318 322 321 321 321 321 321 319 319 319
314 311 311 314 316 318 322 324 328 330 331 331 330 330 330 329 330 330 331 332 330 328 330 328 330 329 323 325 325 322 321 320 319 319 318 321 321 320 320 320 319 319 319
311 309 309 311 313 316 319 323 325 327 328 328 328 328 327 328 328 330 331 331 330 329 328 331 329 326 324 324 323 322 321 320 319 321 320 321 322 321 320 319 318 319 317
308 306 306 308 312 313 316 319 322 325 326 327 327 326 324 324 324 326 330 331 330 328 327 330 327 325 323 323 321 319 321 321 320 319 321 323 324 322 320 319 319 318 315
305 304 304 304 307 310 313 316 318 322 323 325 326 323 321 320 322 325 328 331 330 329 326 327 326 325 323 322 319 319 321 321 320 319 319 325 325 323 321 319 317 314 310
304 302 302 301 303 304 309 312 314 318 321 322 325 326 325 322 322 322 327 330 331 328 326 324 323 325 322 321 319 320 320 320 319 319 318 318 321 322 319 317 315 311 313
303 301 300 300 300 302 303 308 311 314 317 321 321 325 324 325 323 324 326 327 329 329 326 323 317 317 323 321 318 319 320 320 320 319 318 317 320 319 318 317 314 314 317
302 301 300 299 299 300 301 303 306 311 314 317 320 322 324 323 322 323 324 326 327 325 326 322 322 319 320 319 317 318 318 318 318 318 318 318 320 319 318 316 317 319 320
302 300 299 298 298 299 300 301 302 306 311 313 315 319 320 324 323 320 320 325 326 326 325 323 320 314 313 315 317 317 318 318 318 317 319 319 318 319 319 319 320 323 323
302 300 299 298 298 298 299 300 301 303 306 310 313 315 317 319 323 322 320 320 326 327 326 321 318 315 314 317 317 317 317 317 316 315 314 314 315 318 320 321 321 322 322
302 300 299 298 298 298 297 299 300 301 303 309 312 313 315 317 320 322 319 318 320 326 324 320 317 316 316 317 317 318 318 317 318 317 316 315 315 316 316 316 319 321 321
301 300 298 298 297 297 296 298 299 300 301 308 310 312 312 315 318 320 318 319 318 323 323 322 317 316 317 317 316 317 318 318 318 318 318 318 317 317 317 317 318 319 319
301 300 298 298 297 296 295 297 299 300 301 307 310 311 312 314 316 319 321 320 324 322 323 322 319 319 318 318 318 318 318 318 318 318 318 318 318 317 318 318 318 318 317
300 299 298 297 296 296 297 298 299 300 302 307 309 310 311 313 314 316 319 322 324 324 324 324 320 321 321 320 319 318 318 319 319 319 319 319 319 319 319 318 318 317 315
300 299 297 296 296 297 298 299 300 300 303 304 308 309 311 312 314 315 317 321 323 323 322 323 321 321 322 321 320 319 319 319 320 320 321 320 320 319 319 318 316 315 314
299 297 296 296 296 298 298 298 299 299 299 304 305 308 310 312 313 314 315 319 321 323 321 323 322 321 321 320 319 319 319 320 321 321 321 321 320 319 319 316 314 313 312
298 297 296 295 297 297 297 297 297 298 300 302 303 306 309 310 311 313 316 318 321 322 323 322 322 320 320 320 320 320 319 319 315 315 317 318 318 318 316 314 313 312 311
297 297 296 296 296 297 297 297 298 298 300 301 302 305 308 310 310 313 317 319 322 321 322 322 321 321 320 319 320 320 316 320 314 313 312 313 314 313 312 311 311 310 307
297 296 295 295 295 296 296 297 297 296 297 298 300 303 307 309 310 311 318 320 322 323 323 322 321 321 321 320 319 320 318 317 315 314 310 307 308 308 307 306 306 305 304
296 296 295 294 295 296 296 296 296 296 297 299 300 303 305 308 309 312 321 321 322 323 323 322 321 321 321 319 319 319 317 316 315 311 314 307 306 304 303 302 303 303 301
296 295 294 294 295 296 296 296 296 296 297 298 299 301 303 306 308 314 319 322 323 323 318 321 322 321 320 320 319 320 320 318 316 313 311 311 307 300 299 299 300 299 299
Wind_Speed
19 21 20 20 23 20 8 6 7 7 7 5 5 7 9 11 10 10 10 12 13 13 14 12 12 16 18 17 16 17 15 13 10 11 11 18 19 17 14 14 15 18 16
17 17 18 19 22 18 12 7 7 7 9 7 6 7 9 10 11 9 11 16 18 16 15 14 14 18 17 17 16 17 15 14 14 15 18 19 19 16 14 17 14 14 14
18 15 16 17 20 20 17 9 9 8 8 10 9 9 11 11 10 11 15 17 18 16 17 18 17 15 16 14 16 17 18 17 19 21 20 18 17 14 12 12 9 11 14
15 13 13 15 17 18 17 14 9 9 8 9 10 11 11 12 13 14 16 16 15 19 18 16 15 14 14 17 19 17 18 15 13 14 15 14 13 13 10 11 13 17 14
13 14 13 14 14 16 15 15 10 9 10 9 10 10 11 12 14 16 17 17 17 15 13 15 16 16 17 19 19 17 16 16 12 9 11 11 13 13 10 7 9 11 11
13 15 14 13 12 11 13 11 11 9 9 12 9 8 10 10 13 15 17 17 17 15 12 13 17 17 18 17 15 15 15 12 9 7 12 11 9 7 7 9 9 6 8
12 15 14 13 14 13 10 10 8 6 6 12 12 7 5 9 12 14 18 19 18 13 15 14 16 19 19 16 17 19 16 12 9 9 13 11 9 7 8 8 7 6 5
12 14 14 14 13 12 12 9 7 8 6 8 12 13 4 3 8 14 21 22 20 21 16 16 17 18 19 15 16 15 14 11 11 9 12 11 10 10 7 6 5 4 4
11 14 14 14 13 13 12 10 9 7 7 5 12 15 13 14 8 14 20 24 27 24 19 18 19 19 19 17 14 12 15 13 13 9 9 11 12 10 7 5 3 3 3
11 13 14 14 14 13 12 10 11 7 7 11 7 14 15 13 12 13 18 22 25 24 24 23 20 20 19 16 12 11 15 15 12 9 6 8 11 7 5 4 3 2 2
10 12 13 15 15 15 14 12 11 9 7 6 13 13 16 17 12 14 17 16 18 24 21 23 22 22 21 15 12 14 16 13 12 10 7 7 5 5 5 4 2 2 3
12 12 13 14 15 15 14 14 12 10 10 6 6 11 13 16 13 13 10 12 17 17 17 21 19 22 21 18 15 14 14 13 12 10 9 8 6 5 4 3 2 3 2
8 11 12 14 15 15 15 15 12 11 11 10 3 3 12 14 16 14 5 10 15 18 20 22 21 20 21 20 16 14 13 12 10 10 11 8 5 5 3 2 1 1 5
10 11 11 12 13 15 15 15 13 11 9 12 10 4 6 10 19 22 24 9 21 23 27 26 24 22 20 20 15 14 13 11 10 9 11 8 6 5 4 2 3 7 6
10 9 10 11 12 14 15 16 13 12 10 10 9 9 9 8 8 27 25 12 14 27 32 29 25 24 23 18 13 13 13 11 9 7 9 8 7 6 4 3 5 7 8
9 9 9 11 13 14 16 17 16 14 11 8 8 9 10 14 8 21 30 25 14 23 34 29 30 28 23 18 19 14 12 11 9 8 7 6 6 5 4 3 4 5 7
8 9 10 10 12 15 16 16 17 16 12 8 8 8 10 12 15 8 31 21 24 20 23 29 28 28 25 20 18 16 12 10 8 7 6 5 5 4 2 2 2 4 7
7 9 9 9 12 15 16 16 17 16 11 8 10 9 8 10 16 18 8 28 25 21 21 28 29 27 26 22 20 18 14 12 9 7 5 4 3 2 1 2 2 4 6
6 8 10 10 13 15 15 15 17 13 8 7 9 9 10 11 12 18 18 18 22 24 21 27 29 27 26 24 21 18 15 12 9 7 6 5 3 2 2 2 1 1 3
7 7 8 11 13 14 15 15 12 10 4 7 8 8 10 12 13 17 21 21 24 24 23 27 31 30 27 27 22 19 13 10 8 5 5 5 3 4 3 1 1 2 4
7 6 8 11 12 13 15 18 16 12 15 5 7 9 10 12 14 15 22 25 28 24 24 31 29 29 24 24 20 12 7 6 4 3 4 5 5 8 6 4 2 3 5
8 7 9 10 11 11 13 13 13 16 10 11 8 8 8 11 14 15 20 28 30 26 29 29 30 24 16 25 12 11 2 3 7 4 3 7 7 8 7 4 3 3 4
8 7 9 9 10 9 11 13 13 9 6 6 11 9 8 11 14 16 21 29 30 30 28 32 29 27 19 26 18 6 2 2 5 3 5 5 6 7 5 4 2 1 1
6 5 7 8 9 10 10 10 10 10 9 11 15 15 12 11 12 16 24 32 31 30 30 32 32 30 25 24 21 13 4 9 3 2 4 5 5 4 3 3 3 2 2
4 3 6 7 7 9 10 9 10 11 10 13 14 14 12 11 9 9 27 32 34 29 30 29 30 34 30 25 23 15 9 8 8 4 2 4 3 3 3 2 3 2 2
3 2 5 6 8 8 9 8 8 10 11 12 13 15 14 14 11 9 14 29 31 32 29 27 28 33 33 29 28 23 13 6 7 5 3 3 6 4 3 2 2 2 2
Wind_Direction
346 353 350 354 354 349 314 270 261 243 234 223 180 172 170 170 166 155 150 145 139 143 146 143 127 125 118 111 107 107 106 119 124 117 114 108 99 91 83 117 79 102 92
339 343 347 353 358 349 343 288 254 250 242 225 202 187 190 183 174 162 155 149 140 144 144 138 137 122 117 116 113 117 114 110 116 120 110 100 96 90 89 120 89 86 87
345 344 343 349 355 359 353 308 274 235 244 240 218 202 195 196 187 170 158 157 153 148 137 131 132 132 129 123 122 124 124 111 108 106 103 101 98 97 106 108 102 103 94
350 346 339 343 352 354 354 348 273 255 235 244 235 208 199 201 198 185 167 169 163 149 142 138 139 132 128 128 128 123 133 122 114 106 102 102 108 110 99 90 82 82 90
349 355 346 336 344 352 351 350 319 247 236 224 228 232 205 201 207 196 181 168 149 145 147 148 148 138 134 133 131 126 127 122 112 102 108 108 104 103 104 112 109 75 77
342 345 343 341 336 336 350 347 344 279 245 212 207 216 227 200 212 205 193 169 154 149 152 156 151 146 142 142 137 140 144 145 137 100 116 131 119 117 120 104 91 96 83
333 337 340 346 342 336 329 345 330 308 218 210 203 190 210 208 219 214 197 174 167 163 159 162 161 151 152 149 144 145 140 148 116 122 134 130 130 121 112 108 102 96 80
335 334 334 339 342 338 332 323 321 357 269 227 201 187 179 220 218 231 206 189 183 163 167 165 165 154 161 156 144 157 158 161 138 140 145 143 137 130 129 114 106 96 77
329 331 338 336 333 335 332 319 327 313 298 250 242 208 206 217 218 254 216 194 171 163 170 165 166 164 161 156 151 165 173 168 151 139 132 149 154 132 125 125 116 82 66
333 335 339 340 332 328 331 326 324 321 308 241 214 214 201 192 202 233 235 226 175 163 167 169 165 166 166 160 147 153 162 162 160 156 157 140 135 136 137 130 119 94 65
339 342 343 340 337 332 325 326 320 308 311 290 245 203 195 181 195 221 235 227 197 160 170 165 167 168 172 167 154 153 161 164 162 156 159 173 166 142 139 136 133 97 85
335 337 338 340 339 334 331 322 319 312 306 323 298 213 198 181 181 217 219 239 216 169 186 171 165 169 176 175 160 161 160 162 164 165 163 160 155 152 158 159 134 107 62
315 327 335 339 340 335 332 329 322 310 304 296 339 240 224 203 199 215 233 244 210 195 177 165 166 171 173 173 161 167 168 167 168 171 170 178 168 167 180 151 135 354 320
314 316 325 335 338 336 331 331 328 317 299 289 302 273 250 224 222 208 228 262 214 191 180 173 167 164 164 166 160 164 169 176 175 172 180 185 187 181 190 231 293 303 340
282 306 321 329 332 333 331 329 325 318 303 289 280 294 270 250 228 219 205 222 221 195 187 174 169 165 166 167 167 176 170 180 176 171 175 180 185 185 211 270 342 356 3
283 298 313 321 328 334 331 328 325 321 305 287 285 277 275 255 248 211 207 214 232 203 183 176 174 165 172 163 174 171 173 177 181 174 172 176 191 201 222 261 333 350 357
273 299 313 318 328 331 329 323 322 320 304 274 270 268 277 260 250 238 207 206 225 224 175 181 177 168 169 178 177 178 184 182 185 186 180 186 204 212 234 276 307 350 8
268 302 311 315 321 324 325 321 318 317 304 270 260 273 274 273 249 255 209 215 218 211 193 182 169 169 181 187 182 183 189 197 198 201 205 207 218 234 241 255 335 17 9
267 297 311 310 321 324 323 322 322 312 296 274 262 259 274 271 266 243 236 227 213 200 184 183 179 180 184 189 187 186 194 201 207 207 225 228 220 185 160 249 280 295 333
258 292 296 315 323 327 330 329 325 320 268 282 266 263 268 274 272 258 239 228 218 204 186 178 182 187 193 191 190 192 192 206 203 202 223 246 222 184 183 222 308 308 313
259 282 303 322 328 334 342 344 338 331 317 290 283 275 275 265 271 261 242 226 227 221 205 198 184 188 189 189 174 173 186 192 176 202 260 241 198 167 173 172 258 302 315
262 283 320 328 337 342 342 341 327 319 314 313 313 303 282 274 270 263 235 222 215 204 196 196 185 176 184 184 167 146 149 127 89 100 113 133 145 155 171 205 228 274 296
257 300 324 335 334 338 341 340 342 336 329 320 335 328 313 297 282 260 231 214 203 202 187 193 187 178 173 185 173 153 134 180 125 81 95 114 142 154 150 163 177 218 71
258 296 327 337 340 337 344 347 356 341 340 335 339 337 331 318 304 267 220 206 196 191 184 192 192 188 185 181 183 202 175 148 149 150 100 108 117 131 150 162 135 105 56
236 291 337 344 335 344 349 351 352 349 347 346 345 345 335 321 347 281 206 196 188 189 187 193 192 193 194 183 185 177 160 152 138 139 145 152 134 125 140 142 112 82 53
223 320 347 349 348 344 354 358 360 354 350 353 354 353 346 344 11 19 164 191 187 192 189 197 204 203 201 199 194 196 182 167 175 146 120 134 169 174 162 108 74 76 82